Simultaneous Nadir Overpasses (SNOs) Predictions

Prediction of SNOs between AQUA and METOP-A Satellite Orbit:

Table of predicted SNOs for the next 14.0 days since TLE Epoch: 6/8/2012
Index Date (AQUA) Time (AQUA) AQUA Lat,Lon Date (METOP-A) Time (METOP-A) METOP-A Lat,Lon Distance(km) Time Diff (sec)
1 06/09/2012 23:14:37 73.81,-174.30 06/09/2012 23:13:31 73.78,-174.23 3.33 66
2 06/10/2012 00:04:03 -73.83, -6.70 06/10/2012 00:04:12 -73.84, -6.77 2.64 9
3 06/10/2012 00:53:35 74.07, 160.41 06/10/2012 00:54:46 74.11, 161.22 25.35 71
4 06/12/2012 18:48:50 73.80,-107.83 06/12/2012 18:47:52 73.80,-107.77 2.17 58
5 06/12/2012 19:38:17 -73.87, 59.66 06/12/2012 19:38:33 -73.87, 59.70 1.41 16
6 06/12/2012 20:27:54 74.37,-133.85 06/12/2012 20:29:02 74.37,-131.69 64.68 68
7 06/15/2012 14:23:02 73.82, -41.45 06/15/2012 14:22:12 73.81, -41.34 3.55 50
8 06/15/2012 15:12:29 -73.89, 126.05 06/15/2012 15:12:53 -73.88, 126.14 3.20 24
9 06/18/2012 09:57:13 73.78, 25.09 06/18/2012 09:56:33 73.80, 25.06 2.81 40
10 06/18/2012 10:46:41 -73.90,-167.52 06/18/2012 10:47:14 -73.88,-167.45 3.34 33
11 06/21/2012 05:31:25 73.83, 91.44 06/21/2012 05:30:53 73.83, 91.54 3.20 32
12 06/21/2012 06:20:52 -73.89,-101.06 06/21/2012 06:21:35 -73.86,-101.08 3.55 43




NCC Satellite Simultaneous Nadir Overpasses (SNOs) Prediction Service
